User: anonymous   Login
Location: Unspecified
(0.0000°N, 0.0000°E)
Time: 10:06:22
(UTC+00:00)
Language:

Cosmos 1536 - Orbit

View from above orbital plane
View from above orbital plane
View from above satellite
View from above satellite

Ground track
Ground track

The orbit data is extracted from the following two-line orbital elements,

1 14699U 84013A   18175.93460293 -.00000100 +00000-0 -90407-5 0  9991
2 14699 082.5252 328.5827 0011802 217.0619 142.9794 15.05302959848003
Epoch (UTC): 24 June 2018 22:25:49
Eccentricity: 0.0011802
inclination: 82.5252°
perigee height: 542 km
apogee height: 559 km
right ascension of ascending node: 328.5827°
argument of perigee: 217.0619°
revolutions per day: 15.05302959
mean anomaly at epoch: 142.9794°
orbit number at epoch: 84800

The dashed part of the orbit path shows where the satellite is in the earth's shadow,  

DLR